Kahului, HI

12:08 AM HST on February 06, 2016 (GMT -1000)
Kahului

Weather History for PHOG - April, 2014

Change the Weather History Date:

Saturday, April 26, 2014

  Actual Average Record
Temperature  
Mean Temperature 76 °F 74 °F  
Max Temperature 82 °F 83 °F 89 °F (1952)
Min Temperature 70 °F 66 °F 56 °F (2009)
Degree Days  
Heating Degree Days 0 0  
Month to date heating degree days 0 0  
Since 1 July heating degree days 0 0  
Cooling Degree Days 11 9  
Month to date cooling degree days 277 234  
Year to date cooling degree days 1081 888  
Growing Degree Days 26 (Base 50)    
Moisture  
Dew Point 66 °F    
Average Humidity 70    
Maximum Humidity 84    
Minimum Humidity 55    
Precipitation  
Precipitation T in 0.03 in 0.85 in (1987)
Month to date precipitation 2.11 1.42  
Year to date precipitation 12.51 8.63  
Snow  
Snow 0.00 in - - ()
Month to date snowfall 0.0  
Since 1 July snowfall 0.0  
Snow Depth 0.00 in    
Sea Level Pressure  
Sea Level Pressure 30.08 in    
Wind  
Wind Speed 20 mph (NE)    
Max Wind Speed 32 mph    
Max Gust Speed 41 mph    
Visibility 10 miles    
Events Rain    
T = Trace of Precipitation, MM = Missing Value Source: NWS Daily Summary

Daily Weather History Graph

Daily Weather History Graph

Search for Another Location

Airport or City:

Trip Planner

Search our weather history database for the weather conditions in past years. The results will help you decide how hot, cold, wet, or windy it might be!

Date:

Astronomy

Apr. 26, 2014 Rise Set
Actual Time 5:58 AM HST 6:48 PM HST
Civil Twilight 5:35 AM HST 7:11 PM HST
Nautical Twilight 5:08 AM HST 7:38 PM HST
Astronomical Twilight 4:40 AM HST 8:06 PM HST
Moon 4:08 AM HST (4/26) 4:46 PM HST (4/26)
Length of Visible Light 13h 36m
Length of Day
12h 50m
Waning Crescent, 7% of the Moon is Illuminated
Apr 26
Waning Crescent
Apr 28
New
May 6
First Quarter
May 14
Full
May 21
Last Quarter

Hourly Weather History & Observations

Time (HST) Temp. Heat Index Dew Point Humidity Pressure Visibility Wind Dir Wind Speed Gust Speed Precip Events Conditions
12:54 AM 72.0 °F - 64.0 °F 76% 30.11 in 10.0 mi ENE 13.8 mph 23.0 mph N/A   Clear
1:54 AM 72.0 °F - 64.9 °F 78% 30.09 in 10.0 mi NE 20.7 mph 27.6 mph 0.00 in   Clear
2:54 AM 72.0 °F - 64.9 °F 78% 30.07 in 10.0 mi NE 15.0 mph 21.9 mph N/A   Clear
3:54 AM 71.1 °F - 66.0 °F 84% 30.06 in 10.0 mi NE 17.3 mph 25.3 mph 0.00 in Rain Light Rain
4:16 AM 71.6 °F - 66.2 °F 83% 30.04 in 10.0 mi NE 15.0 mph 23.0 mph 0.00 in Rain Light Rain
4:49 AM 71.6 °F - 66.2 °F 83% 30.05 in 10.0 mi NE 16.1 mph 21.9 mph 0.00 in   Scattered Clouds
4:54 AM 71.1 °F - 66.0 °F 84% 30.07 in 10.0 mi ENE 15.0 mph - 0.00 in   Partly Cloudy
5:10 AM 71.6 °F - 66.2 °F 83% 30.06 in 10.0 mi NE 17.3 mph - 0.00 in Rain Light Rain
5:33 AM 71.6 °F - 66.2 °F 83% 30.06 in 10.0 mi NE 12.7 mph - 0.00 in   Scattered Clouds
5:54 AM 71.1 °F - 66.0 °F 84% 30.08 in 10.0 mi NE 16.1 mph 23.0 mph 0.00 in   Scattered Clouds
6:54 AM 72.0 °F - 66.9 °F 84% 30.10 in 10.0 mi NE 16.1 mph - 0.00 in   Scattered Clouds
7:54 AM 73.9 °F - 66.9 °F 79% 30.11 in 10.0 mi NE 16.1 mph - 0.00 in   Scattered Clouds
8:54 AM 77.0 °F - 64.9 °F 66% 30.11 in 10.0 mi ENE 18.4 mph 33.4 mph 0.00 in   Partly Cloudy
9:54 AM 80.1 °F 81.9 °F 64.9 °F 60% 30.10 in 10.0 mi NE 26.5 mph 33.4 mph N/A   Partly Cloudy
10:54 AM 82.0 °F 83.8 °F 64.9 °F 56% 30.09 in 10.0 mi NE 26.5 mph 39.1 mph N/A   Partly Cloudy
11:54 AM 80.1 °F 82.3 °F 66.9 °F 64% 30.09 in 10.0 mi ENE 25.3 mph 38.0 mph 0.00 in   Partly Cloudy
12:54 PM 80.1 °F 82.1 °F 66.0 °F 62% 30.06 in 10.0 mi ENE 31.1 mph 41.4 mph N/A   Partly Cloudy
1:54 PM 80.1 °F 82.3 °F 66.9 °F 64% 30.04 in 10.0 mi NE 23.0 mph 39.1 mph N/A   Scattered Clouds
2:54 PM 80.1 °F 81.9 °F 64.9 °F 60% 30.03 in 10.0 mi ENE 20.7 mph 36.8 mph N/A   Scattered Clouds
3:54 PM 77.0 °F - 66.0 °F 69% 30.03 in 10.0 mi ENE 20.7 mph 31.1 mph N/A   Scattered Clouds
4:54 PM 75.0 °F - 66.0 °F 73% 30.04 in 10.0 mi ENE 20.7 mph 28.8 mph 0.00 in Rain Light Rain
5:54 PM 73.9 °F - 66.0 °F 76% 30.05 in 10.0 mi ENE 20.7 mph 28.8 mph 0.00 in   Mostly Cloudy
6:54 PM 73.0 °F - 66.0 °F 79% 30.08 in 10.0 mi NE 19.6 mph 25.3 mph N/A   Scattered Clouds
7:54 PM 71.1 °F - 66.0 °F 84% 30.11 in 10.0 mi NE 11.5 mph 20.7 mph 0.00 in Rain Light Rain
8:54 PM 73.0 °F - 64.0 °F 73% 30.11 in 10.0 mi ENE 6.9 mph 17.3 mph 0.00 in   Partly Cloudy
9:54 PM 73.0 °F - 64.0 °F 73% 30.10 in 10.0 mi ENE 15.0 mph 23.0 mph N/A   Clear
10:54 PM 73.0 °F - 64.0 °F 73% 30.09 in 10.0 mi ENE 11.5 mph - N/A   Partly Cloudy
11:54 PM 73.0 °F - 64.9 °F 76% 30.08 in 10.0 mi NE 13.8 mph 21.9 mph N/A   Scattered Clouds